[[{"header":{"parameterUnit":"m.s-1","parameterCategory":1,"la1":30.2991,"la2":30.254,"lo1":-89.0895,"lo2":-89.0444,"dy":0.0017,"dx":0.0017,"nx":28,"ny":28,"refTime":"2024-03-15T03:00:00:Z","depth":0,"parameterNumber":2,"parameterNumberName":"U-component_of_WINDS"},"data":[0,0,0,0,0,0,0,0,0,0,0,0,0,0,0,0,0,0,0,0,0,0,0,0,0,0,0,0,0,0,0,0,0,0,0,0,0,0,0,0,0,0,0,0,0,0,0,0,0,0,0,0,0,0,0,0,0,0,-1.2125,-1.2125,0,-1.2075,-1.2075,-1.2074,-1.2028,-1.2027,-1.2026,-1.2026,-1.1974,-1.1974,-1.1973,0,0,0,0,0,0,0,0,0,0,0,0,0,-1.218,-1.2179,-1.2125,-1.2125,-1.2124,-1.2076,-1.2075,-1.2074,-1.2028,-1.2027,-1.2026,-1.2026,-1.1975,-1.1974,-1.1973,0,0,0,0,0,0,0,0,0,0,0,0,0,-1.2146,-1.2179,-1.2125,-1.2095,-1.2092,-1.2076,-1.2075,-1.2074,-1.2028,-1.2027,-1.2026,-1.2025,-1.1975,-1.1974,-1.1973,-1.1982,0,0,-1.1969,-1.1968,0,0,0,0,0,0,0,0,-1.2148,-1.2144,-1.21,-1.2097,-1.2093,-1.2057,-1.2075,-1.2043,-1.2028,-1.2052,-1.2026,-1.2025,-1.2002,-1.1999,-1.1991,-1.198,-1.1978,-1.1969,-1.1968,-1.1967,-1.1967,0,0,0,0,0,0,0,-1.215,-1.2146,-1.2106,-1.21,-1.2096,-1.2084,-1.2078,-1.2069,-1.2033,-1.205,-1.2046,-1.2041,-1.2,-1.1993,-1.199,-1.1977,-1.1969,-1.1968,-1.1967,-1.1966,-1.1972,-1.1972,0,0,0,0,0,0,-1.2157,-1.2148,-1.2107,-1.2104,-1.2119,-1.2084,-1.2077,-1.207,-1.2033,-1.2026,-1.2042,-1.2039,-1.1995,-1.1991,-1.1988,-1.1998,-1.1967,-1.1966,-1.1965,-1.1971,-1.1972,-1.1973,0,0,0,0,0,0,-1.2159,-1.2154,-1.2109,-1.2125,-1.2118,-1.2084,-1.2075,-1.2069,-1.2061,-1.2027,-1.202,-1.2041,-1.1994,-1.199,-1.1984,-1.1996,-1.1966,-1.1964,-1.197,-1.1971,-1.1972,-1.2018,0,0,0,0,0,0,-1.216,-1.2155,-1.2158,-1.2125,-1.2118,-1.2107,-1.2076,-1.2069,-1.2059,-1.2055,-1.2024,-1.2018,-1.1993,-1.1986,-1.1983,-1.1993,-1.1963,-1.1968,-1.197,-1.1972,-1.2015,-1.2021,-1.2025,0,0,0,0,0,-1.2162,-1.2173,-1.2159,-1.2154,-1.2121,-1.2107,-1.2103,-1.2075,-1.206,-1.2064,-1.2042,-1.2019,-1.1994,-1.1986,-1.1982,-1.1992,-1.1968,-1.197,-1.1972,-1.2013,-1.202,-1.2025,0,0,0,0,0,0,-1.2208,-1.2168,-1.2152,-1.2152,-1.2134,-1.21,-1.2103,-1.2083,-1.2068,-1.2064,-1.203,-1.2023,-1.2022,-1.2006,-1.1998,-1.2,-1.1978,-1.1979,-1.2011,-1.2017,-1.2022,-1.2026,-1.1962,0,0,0,0,0,-1.2218,-1.221,-1.2175,-1.2179,-1.217,-1.2138,-1.2131,-1.2111,-1.209,-1.2082,-1.206,-1.204,-1.2028,-1.2021,-1.2008,-1.2012,-1.2005,-1.2017,-1.2022,-1.2026,-1.2028,-1.203,-1.2035,-1.1979,-1.1979,-1.1979,0,0,-1.2238,-1.2216,-1.2213,-1.2187,-1.2171,-1.2163,-1.2132,-1.2125,-1.212,-1.2081,-1.2075,-1.2058,-1.2034,-1.2034,-1.2032,-1.202,-1.2042,-1.2029,-1.2032,-1.2032,-1.2033,-1.2038,-1.2043,-1.1981,-1.198,-1.198,0,0,-1.2273,-1.2254,-1.2256,-1.2239,-1.2215,-1.2193,-1.2194,-1.2163,-1.215,-1.2143,-1.2115,-1.2107,-1.2087,-1.2071,-1.2061,-1.2089,-1.2068,-1.2086,-1.2113,-1.2115,-1.2119,-1.2123,-1.2135,-1.2139,-1.2088,-1.2088,-1.2088,0,-1.2302,-1.229,-1.2259,-1.2254,-1.2244,-1.2209,-1.221,-1.2196,-1.2168,-1.2162,-1.2149,-1.2124,-1.2105,-1.2101,-1.2108,-1.21,-1.21,-1.209,-1.2121,-1.2125,-1.2128,-1.2138,-1.2143,-1.209,-1.209,-1.209,-1.2089,0,-1.2327,-1.2319,-1.2323,-1.2298,-1.2288,-1.2287,-1.2256,-1.2249,-1.223,-1.221,-1.2204,-1.218,-1.2162,-1.2159,-1.214,-1.2153,-1.2146,-1.2128,-1.2105,-1.2136,-1.2146,-1.2149,-1.2094,-1.2093,-1.2092,-1.2091,0,0,-1.239,-1.2347,-1.235,-1.2338,-1.2308,-1.2301,-1.2298,-1.2281,-1.2277,-1.2258,-1.2255,-1.2239,-1.2222,-1.221,-1.2188,-1.219,-1.2216,-1.2171,-1.217,-1.2182,-1.223,-1.2246,-1.2251,-1.2201,-1.2201,-1.2202,-1.2233,0,-1.2421,-1.2414,-1.2386,-1.2387,-1.238,-1.2346,-1.2343,-1.2324,-1.2305,-1.2296,-1.2275,-1.2265,-1.2242,-1.2235,-1.2235,-1.2213,-1.2225,-1.221,-1.2199,-1.2199,-1.2208,-1.2256,-1.2272,-1.2303,-1.2236,-1.2237,-1.2237,0,-1.2456,-1.2441,-1.2442,-1.2412,-1.2408,-1.2406,-1.2389,-1.238,-1.2358,-1.2344,-1.2331,-1.2307,-1.2302,-1.228,-1.2273,-1.2263,-1.2256,-1.2245,-1.2245,-1.2245,-1.2221,-1.2258,-1.2311,-1.2317,-1.2242,-1.2242,-1.2241,0,-1.2504,-1.2483,-1.2481,-1.2472,-1.2438,-1.2437,-1.2423,-1.24,-1.2391,-1.2375,-1.237,-1.2353,-1.2345,-1.2333,-1.2305,-1.2291,-1.2301,-1.2277,-1.2291,-1.2292,-1.2296,-1.2297,-1.2351,-1.2289,-1.2289,-1.2289,-1.2288,0,-1.2542,-1.2545,-1.2503,-1.2502,-1.2504,-1.2471,-1.2473,-1.2455,-1.2435,-1.243,-1.2399,-1.2395,-1.2357,-1.2349,-1.2327,-1.2325,-1.2321,-1.231,-1.2305,-1.2314,-1.2316,-1.2311,-1.2309,-1.229,-1.2289,-1.2289,-1.2289,0,-1.2597,-1.2569,-1.2565,-1.2533,-1.2524,-1.2527,-1.2499,-1.2497,-1.2476,-1.247,-1.2467,-1.2434,-1.2422,-1.2393,-1.2374,-1.2359,-1.2364,-1.2352,-1.2372,-1.2369,-1.2385,-1.2385,-1.244,-1.2446,-1.2378,-1.2379,-1.238,0,-1.2625,-1.2626,-1.2594,-1.2588,-1.2575,-1.2567,-1.2558,-1.2526,-1.2518,-1.2493,-1.2494,-1.248,-1.2468,-1.2451,-1.2426,-1.2411,-1.24,-1.242,-1.2397,-1.2407,-1.2402,-1.2404,-1.2404,-1.2426,-1.2427,-1.2427,-1.2428,0,-1.2677,-1.2663,-1.2652,-1.2637,-1.2627,-1.2613,-1.2597,-1.2595,-1.2558,-1.2551,-1.2539,-1.253,-1.251,-1.2497,-1.2478,-1.2463,-1.244,-1.2435,-1.2438,-1.2449,-1.2461,-1.2456,-1.2388,-1.2434,-1.2434,-1.2433,-1.2433,-1.2433,-1.2721,-1.272,-1.2698,-1.2687,-1.2671,-1.2657,-1.2654,-1.2633,-1.2623,-1.2605,-1.2585,-1.2576,-1.2554,-1.2527,-1.2513,-1.2505,-1.2493,-1.2497,-1.2498,-1.25,-1.2505,-1.246,-1.2501,-1.2501,-1.2501,-1.2501,-1.25,0,-1.2773,-1.2757,-1.2747,-1.2726,-1.2718,-1.2696,-1.2677,-1.2671,-1.2664,-1.2645,-1.2633,-1.262,-1.2607,-1.2581,-1.2565,-1.2564,-1.2554,-1.2562,-1.2563,-1.256,-1.2516,-1.2516,-1.2571,-1.2571,-1.2571,-1.2571,-1.2571,-1.2571,-1.28,-1.2799,-1.2782,-1.2773,-1.2757,-1.2748,-1.2739,-1.2726,-1.2711,-1.2698,-1.2688,-1.267,-1.2648,-1.2631,-1.2619,-1.2611,-1.2608,-1.262,-1.2609,-1.2569,-1.2563,-1.2556,-1.2556,-1.2619,-1.2619,-1.2654,-1.2654,-1.2655]},{"header":{"parameterUnit":"m.s-1","parameterCategory":1,"la1":30.2991,"la2":30.254,"lo1":-89.0895,"lo2":-89.0444,"dy":0.0017,"dx":0.0017,"nx":28,"ny":28,"refTime":"2024-03-15T03:00:00:Z","depth":0,"parameterNumber":3,"parameterNumberName":"V-component_of_WINDS"},"data":[0,0,0,0,0,0,0,0,0,0,0,0,0,0,0,0,0,0,0,0,0,0,0,0,0,0,0,0,0,0,0,0,0,0,0,0,0,0,0,0,0,0,0,0,0,0,0,0,0,0,0,0,0,0,0,0,0,0,-1.6827,-1.6827,0,-1.6794,-1.6794,-1.6794,-1.6765,-1.6765,-1.6764,-1.6764,-1.6729,-1.6729,-1.6728,0,0,0,0,0,0,0,0,0,0,0,0,0,-1.6862,-1.6862,-1.6827,-1.6827,-1.6826,-1.6795,-1.6794,-1.6794,-1.6765,-1.6764,-1.6764,-1.6764,-1.6729,-1.6729,-1.6728,0,0,0,0,0,0,0,0,0,0,0,0,0,-1.684,-1.6862,-1.6827,-1.6808,-1.6806,-1.6795,-1.6794,-1.6794,-1.6765,-1.6764,-1.6764,-1.6764,-1.673,-1.6729,-1.6728,-1.6732,0,0,-1.6725,-1.6725,0,0,0,0,0,0,0,0,-1.6842,-1.6839,-1.6811,-1.6809,-1.6807,-1.6783,-1.6794,-1.6773,-1.6765,-1.6781,-1.6764,-1.6763,-1.6747,-1.6745,-1.674,-1.673,-1.6729,-1.6725,-1.6724,-1.6724,-1.6724,0,0,0,0,0,0,0,-1.6843,-1.684,-1.6814,-1.6811,-1.6808,-1.6801,-1.6797,-1.679,-1.6767,-1.6779,-1.6777,-1.6774,-1.6746,-1.6741,-1.6739,-1.6728,-1.6725,-1.6724,-1.6724,-1.6723,-1.672,-1.672,0,0,0,0,0,0,-1.6848,-1.6842,-1.6815,-1.6813,-1.6823,-1.68,-1.6796,-1.6791,-1.6767,-1.6763,-1.6774,-1.6772,-1.6743,-1.674,-1.6738,-1.6741,-1.6724,-1.6723,-1.6723,-1.6719,-1.672,-1.672,0,0,0,0,0,0,-1.6849,-1.6846,-1.6816,-1.6827,-1.6822,-1.68,-1.6795,-1.6791,-1.6786,-1.6763,-1.6759,-1.6773,-1.6742,-1.6739,-1.6734,-1.6739,-1.6723,-1.6722,-1.6719,-1.672,-1.672,-1.6747,0,0,0,0,0,0,-1.685,-1.6846,-1.6848,-1.6827,-1.6822,-1.6814,-1.6795,-1.6791,-1.6784,-1.6782,-1.6761,-1.6757,-1.6742,-1.6735,-1.6733,-1.6738,-1.6721,-1.6718,-1.6719,-1.672,-1.6746,-1.6749,-1.6751,0,0,0,0,0,-1.6851,-1.6857,-1.6848,-1.6845,-1.6824,-1.6814,-1.6811,-1.6794,-1.6785,-1.6786,-1.6772,-1.6758,-1.6739,-1.6735,-1.6732,-1.6737,-1.6718,-1.6719,-1.672,-1.6745,-1.6748,-1.6751,0,0,0,0,0,0,-1.6879,-1.6854,-1.6844,-1.6843,-1.6831,-1.6809,-1.6811,-1.6798,-1.6788,-1.6786,-1.6764,-1.6759,-1.6756,-1.6746,-1.6742,-1.6739,-1.6726,-1.6727,-1.6746,-1.6749,-1.6752,-1.6755,-1.672,0,0,0,0,0,-1.6885,-1.688,-1.6858,-1.6859,-1.6853,-1.6833,-1.6828,-1.6815,-1.6802,-1.6796,-1.6781,-1.6768,-1.6759,-1.6754,-1.6744,-1.6744,-1.6739,-1.6745,-1.6748,-1.6751,-1.6751,-1.675,-1.6753,-1.6724,-1.6724,-1.6724,0,0,-1.6898,-1.6883,-1.6881,-1.6864,-1.6853,-1.6848,-1.6829,-1.6824,-1.6819,-1.6795,-1.679,-1.6778,-1.6762,-1.6759,-1.6757,-1.675,-1.6758,-1.6752,-1.6754,-1.6754,-1.6751,-1.6754,-1.6757,-1.6725,-1.6725,-1.6724,0,0,-1.6917,-1.6906,-1.6906,-1.6895,-1.6879,-1.6865,-1.6865,-1.6845,-1.6836,-1.683,-1.6812,-1.6806,-1.6791,-1.678,-1.6772,-1.6787,-1.6773,-1.6784,-1.6799,-1.6798,-1.68,-1.6802,-1.6807,-1.6809,-1.6785,-1.6785,-1.6785,0,-1.6935,-1.6926,-1.6907,-1.6903,-1.6896,-1.6874,-1.6873,-1.6864,-1.6845,-1.684,-1.6833,-1.6813,-1.6801,-1.6795,-1.6798,-1.6793,-1.6792,-1.6787,-1.6801,-1.6803,-1.6805,-1.6809,-1.6811,-1.6786,-1.6786,-1.6786,-1.6786,0,-1.6948,-1.6942,-1.6944,-1.6927,-1.6919,-1.6917,-1.6897,-1.6892,-1.688,-1.6867,-1.686,-1.6844,-1.6831,-1.6828,-1.6816,-1.682,-1.6817,-1.6806,-1.6793,-1.6809,-1.6813,-1.6814,-1.6789,-1.6788,-1.6788,-1.6787,0,0,-1.6985,-1.6957,-1.6958,-1.695,-1.693,-1.6924,-1.692,-1.6908,-1.6904,-1.6891,-1.6887,-1.6874,-1.6864,-1.6855,-1.6841,-1.684,-1.6853,-1.6829,-1.6828,-1.6834,-1.6856,-1.6864,-1.6867,-1.6843,-1.6844,-1.6844,-1.6857,0,-1.7002,-1.6994,-1.6977,-1.6974,-1.6968,-1.6947,-1.6944,-1.6931,-1.6918,-1.691,-1.6896,-1.6887,-1.6874,-1.6869,-1.6867,-1.6852,-1.6857,-1.685,-1.6839,-1.6839,-1.6844,-1.6869,-1.6878,-1.6891,-1.6858,-1.6859,-1.6859,0,-1.702,-1.7009,-1.7007,-1.6986,-1.6983,-1.6981,-1.6967,-1.696,-1.6945,-1.6935,-1.6925,-1.691,-1.6904,-1.6892,-1.6883,-1.6879,-1.6873,-1.6864,-1.6864,-1.6863,-1.685,-1.6868,-1.6895,-1.6897,-1.6861,-1.6861,-1.6861,0,-1.7048,-1.7032,-1.7028,-1.7022,-1.6998,-1.6997,-1.6987,-1.6971,-1.6964,-1.6952,-1.6947,-1.6934,-1.6927,-1.6917,-1.6898,-1.6891,-1.6891,-1.6877,-1.6883,-1.6883,-1.6884,-1.6884,-1.6911,-1.688,-1.688,-1.688,-1.688,0,-1.7068,-1.7067,-1.704,-1.7038,-1.7036,-1.7015,-1.7014,-1.7002,-1.6987,-1.6982,-1.6962,-1.6957,-1.6933,-1.6925,-1.691,-1.6904,-1.6901,-1.6893,-1.6889,-1.6895,-1.6896,-1.6891,-1.689,-1.688,-1.688,-1.688,-1.688,0,-1.7099,-1.7081,-1.7075,-1.7053,-1.7047,-1.7047,-1.7028,-1.7024,-1.701,-1.7003,-1.7,-1.6978,-1.6967,-1.6948,-1.6931,-1.6921,-1.6919,-1.6912,-1.6924,-1.6922,-1.6928,-1.6928,-1.6953,-1.6955,-1.6923,-1.6923,-1.6923,0,-1.7113,-1.7112,-1.709,-1.7085,-1.7076,-1.7068,-1.7061,-1.704,-1.7033,-1.7015,-1.7014,-1.7001,-1.6991,-1.6974,-1.6956,-1.6944,-1.6936,-1.6946,-1.6934,-1.694,-1.6936,-1.6937,-1.6936,-1.6949,-1.6949,-1.6949,-1.695,0,-1.7141,-1.7132,-1.7123,-1.711,-1.7102,-1.7092,-1.708,-1.7076,-1.7053,-1.7046,-1.7035,-1.7027,-1.701,-1.6998,-1.6982,-1.6971,-1.6956,-1.6953,-1.6954,-1.696,-1.6967,-1.6963,-1.6932,-1.6953,-1.6953,-1.6952,-1.6952,-1.6952,-1.7164,-1.7161,-1.7145,-1.7136,-1.7124,-1.7113,-1.7109,-1.7094,-1.7085,-1.707,-1.7058,-1.7048,-1.7031,-1.7009,-1.6998,-1.699,-1.6983,-1.6984,-1.6984,-1.6984,-1.6987,-1.6968,-1.6987,-1.6986,-1.6986,-1.6986,-1.6986,0,-1.719,-1.7179,-1.717,-1.7154,-1.7146,-1.7133,-1.7119,-1.7113,-1.7104,-1.709,-1.708,-1.7067,-1.7055,-1.7036,-1.7022,-1.7019,-1.7011,-1.7016,-1.7016,-1.7013,-1.6994,-1.6995,-1.7022,-1.7022,-1.7022,-1.7022,-1.7022,-1.7022,-1.7203,-1.7199,-1.7188,-1.7177,-1.7165,-1.7155,-1.7148,-1.7138,-1.7126,-1.7113,-1.7103,-1.7091,-1.7074,-1.7059,-1.7047,-1.7042,-1.7037,-1.7044,-1.7036,-1.7018,-1.7015,-1.7012,-1.7012,-1.7043,-1.7043,-1.7057,-1.7057,-1.7057]}]]